417P/NEOWISE (2021)

Japanese version
Home page
Updated on May 31, 2021

---------------------------------------------------------------------

* Profile

Designation 417P/2021 B1
Recovery Date January 17, 2021
Magnitude 20.4 mag
Recoverer E. Schwab (Egelsbach, Germany)

* Pictures

* Orbital Elements

Epoch 2021 Apr. 16.0 TT = JDT 2459320.5
T 2021 Apr. 22.17302 TT                                 Rudenko
q   1.4920110            (2000.0)            P               Q
n   0.16090660     Peri.  129.45756     -0.48049905     +0.86704553
a   3.3477535      Node   111.35108     -0.84180353     -0.41386189
e   0.5543247      Incl.    8.13100     -0.24594203     -0.27739931
P   6.13
From 134 observations 2015 May 15-2021 Apr. 20, mean residual 0".6.

* Finding Charts

* Magnitudes Graph

        m1 = 17.0 + 5 log d + 10.0 log r

---------------------------------------------------------------------

The orbital elements are published on M.P.E.C. 2021-J28.
The charts are made with StellaNavigator Ver.10 (AstroArts).
The magnitudes graphs are made with Comet for Windows.

---------------------------------------------------------------------

Copyright(C) Seiichi Yoshida (comet@aerith.net). All rights reserved.